Location: Grasslands National Park East Block
(49.0708°N, 106.5295°W)
Time: 03:03:38
(UTC-06:00)

SR - Pass Details

Date: 30 October 2019
Orbit: 574 x 882 km, 66.7° (Epoch: 12 November)

Event Time Altitude Azimuth Distance (km) Brightness Sun altitude
Exits shadow 06:15:57 21° 297° (WNW) 1,871 ? -15.9°
Maximum altitude 06:19:04 35° 247° (WSW) 1,380 ? -15.4°
Drops below altitude 10° 06:24:19 10° 184° (S) 2,501 ? -14.5°
Sets 06:26:56 0° 175° (S) 3,407 ? -14.1°
